Location: *
(43.0833°N, 13.0500°E)
Time: 18:05:52
(UTC+00:00)

Cosmos 1980 Rocket - Pass Details

Date: 15 November 2019
Orbit: 828 x 851 km, 71.0° (Epoch: 14 December)

Event Time Altitude Azimuth Distance (km) Brightness Sun altitude
Rises 18:34:03 0° 218° (SW) 3,382 5.8 -31.0°
Reaches altitude 10° 18:36:32 10° 223° (SW) 2,455 5.0 -31.4°
Maximum altitude 18:42:01 51° 299° (WNW) 1,052 2.9 -32.4°
Enters shadow 18:42:11 51° 306° (NW) 1,054 2.8 -32.4°
